Regional Weather Roundup
Issued by NWS

Home | Current Version | Previous Version | Graphics & Text | Print | Product List | Glossary On
Versions: 1 2 3 4 5 6 7 8 9 10 11 12 13 14 15 16 17 18 19 20 21 22 23 24 25 26 27 28 29 30 31 32 33 34 35 36 37 38 39 40 41 42 43 44 45 46 47 48 49 50
000
ASUS43 KLOT 021003
RWRIL

ILLINOIS REGIONAL WEATHER ROUNDUP
NATIONAL WEATHER SERVICE CHICAGO/ROMEOVILLE IL
500 AM CDT MON MAY 02 2016

NOTE: "FAIR" INDICATES FEW OR NO CLOUDS BELOW 12,000 FEET WITH NO
SIGNIFICANT WEATHER AND/OR OBSTRUCTIONS TO VISIBILITY.

* THESE STATIONS ARE NOT UNDER NWS QUALITY CONTROL. THEY ALSO MAY NOT
  REPORT WEATHER SUCH AS PRECIPITATION OR FOG.

ILZ001-002-007-009-015-016-024-021100-
NORTHWEST ILLINOIS

CITY           SKY/WX    TMP DP  RH WIND       PRES   REMARKS
MOLINE         CLOUDY    49  46  90 N6        30.06S FOG
STERLING*      CLOUDY    46  45  93 NE6       30.06F
$$

ILZ003-004-008-010-011-017-018-021100-
NORTH CENTRAL ILLINOIS

CITY           SKY/WX    TMP DP  RH WIND       PRES   REMARKS
ROCKFORD       CLOUDY    46  43  89 N9        30.07F
FREEPORT*      CLOUDY    46  44  94 N7        30.08F
ROCHELLE*      CLOUDY    45  42  90 NE7       30.06S
DE KALB*       CLOUDY    45  41  88 NE8       30.05S
$$

ILZ005-006-012>014-019>023-021100-
NORTHEAST ILLINOIS

CITY           SKY/WX    TMP DP  RH WIND       PRES   REMARKS
CHICAGO-OHARE  CLOUDY    45  37  73 NE9       30.03R
CHICAGO-MIDWAY CLOUDY    45  38  76 NE15      30.03S
AURORA         CLOUDY    46  41  82 NE8       30.04S
LANSING*       CLOUDY    44  41  89 N10       30.02S
WAUKEGAN       CLOUDY    43  41  93 N5        30.04S
DUPAGE AIRPORT CLOUDY    45  38  76 NE8       30.04R
WHEELING       PTCLDY    45  36  70 NE7       30.04S
MORRIS*        CLOUDY    45  42  89 N3        30.02S
NORTHERLY ISL    N/A     44  39  82 N10         N/A
NORTHERLY ISL    N/A     44  39  82 N10         N/A
$$

LMZ740>746-021100-
SOUTHERN LAKE MICHIGAN

STATION/POSITION SKY/WX   TEMP    WIND        PRES    VSBY  WAVE
                          AIR SEA DIR/SP/G                  HT/PER
                          (F)     (DEG/KT/KT) (MB)    (MI)  (FT/S)
SOUTHERN BUOY              42 40   10/  8/ 10 1017.5          2/ 5
HARRISON CRIB              45      10/ 17/ 21   N/A
BURNHAM HARBOR             44     360/  9/ 15   N/A
CALUMET HARBOR             44     350/ 12/ 15 1016.0R
BURNS HARBOR               44      20/ 17/ 22 1016.3R
MICHIGAN CITY              45      10/ 18/ 19   N/A
ST. JOSEPH                 45 47                N/A           3/ 4
$$

ILZ025>027-034>036-040-047-049-050-058-095>099-021100-
WEST-CENTRAL ILLINOIS

CITY           SKY/WX    TMP DP  RH WIND       PRES   REMARKS
QUINCY         CLOUDY    49  47  93 NW9       30.05F
MACOMB*        CLOUDY    49  48  98 N6        30.08S FOG
PITTSFIELD*    CLOUDY    50  48  93 W5        30.07R
$$

ILZ028>032-037-038-041>044-048-051>054-059>061-021100-
CENTRAL ILLINOIS

CITY           SKY/WX    TMP DP  RH WIND       PRES   REMARKS
BLOOMINGTON    CLOUDY    48  48 100 N12       30.02S FOG
DECATUR        CLOUDY    50  44  80 NW6       30.03R
PEORIA         CLOUDY    49  45  86 N6        30.04R
LINCOLN*       CLOUDY    49  48  94 N5        30.03R
SPRINGFIELD    CLOUDY    51  48  89 NW7       30.04R
TAYLORVILLE    NOT AVBL
$$

ILZ033-039-045-046-055>057-062-063-021100-
EAST-CENTRAL ILLINOIS

CITY           SKY/WX    TMP DP  RH WIND       PRES   REMARKS
CHAMPAIGN      CLOUDY    49  47  93 NW13      30.00R
MATTOON        CLOUDY    51  46  83 NW13      30.00R
$$

ILZ079-100>102-021100-
SOUTHWEST ILLINOIS

CITY           SKY/WX    TMP DP  RH WIND       PRES   REMARKS
ALTON          CLOUDY    51  47  86 NW8       30.06R
BELLEVILLE     PTCLDY    52  52 100 NW6       30.02F
CAHOKIA*       LGT RAIN  54  47  77 NW9       30.05F
SPARTA*        CLOUDY    53  48  82 N6        30.05R
$$

ILZ064>066-069>071-074>076-080>082-084>086-088>090-092>094-021100-
SOUTH-CENTRAL ILLINOIS

CITY           SKY/WX    TMP DP  RH WIND       PRES   REMARKS
CARBONDALE     MOCLDY    53  50  89 NW6       30.04R
CAIRO*         MOCLDY    55  51  86 N5        30.04R
EFFINGHAM*     CLOUDY    53  52  94 NW10      30.02S
MT. VERNON     CLOUDY    54  46  76 W3        30.04S
SALEM*         CLOUDY    53  49  86 NW7       30.03S
$$

ILZ067-068-072-073-078-083-087-091-021100-
SOUTHEAST ILLINOIS

CITY           SKY/WX    TMP DP  RH WIND       PRES   REMARKS
LAWRENCEVILLE  CLOUDY    55  51  86 NW9       30.00R
FLORA*         CLOUDY    54  51  90 W10       30.02S
FAIRFIELD*     CLOUDY    54  50  88 W3        30.02R
HARRISBURG*    CLEAR     54  51  90 NW3       30.04R
ROBINSON*      CLOUDY    52  49  89 N9        30.01S
CARMI*         CLEAR     54  52  92 NW7       30.02R
$$

ABBREVIATIONS USED IN REMARKS
   TC - TEMPERATURE IN CELSIUS
  WCI - WIND CHILL INDEX
   HX - HEAT INDEX
  VSB - VISIBILITY
$$





USA.gov is the U.S. government's official web portal to all federal, state and local government web resources and services.